Location: Del Amo
(33.8464°N, 118.2104°W)
Time: 08:48:00
(UTC+00:00)

Vanguard 3 - Pass Details

Date: 18 September 2024
Orbit: 507 x 3223 km, 33.3° (Epoch: 09 October)

Event Time Altitude Azimuth Distance (km) Brightness Sun altitude
Rises 12:21:35 0° 225° (SW) 5,818 - -16.7°
Exits shadow 12:24:18 - 222° (SW) 5,259 10.8 -16.1°
Reaches altitude 10° 12:25:03 10° 221° (SW) 5,112 10.7 -16.0°
Maximum altitude 12:40:51 56° 148° (SSE) 3,511 10.4 -12.7°
Drops below altitude 10° 12:59:39 10° 77° (ENE) 5,995 13.2 -8.9°
Sets 13:04:05 0° 74° (ENE) 6,840 14.1 -8.0°
